Weather History for KMPO - September, 2012

Change the Weather History Date:

Friday, September 28, 2012

  Actual Average Record
Temperature  
Mean Temperature 57 °F 54 °F  
Max Temperature 63 °F 63 °F 82 °F (1998)
Min Temperature 51 °F 45 °F 26 °F (1957)
Degree Days  
Heating Degree Days 8 11  
Month to date heating degree days 169 181  
Since 1 July heating degree days 193 244  
Cooling Degree Days 0 0  
Month to date cooling degree days 23 13  
Year to date cooling degree days 453 309  
Growing Degree Days 7 (Base 50)    
Moisture  
Dew Point 55 °F    
Average Humidity 92    
Maximum Humidity 100    
Minimum Humidity 84    
Precipitation  
Precipitation 0.45 in 0.22 in 2.92 in (2011)
Month to date precipitation 8.62 4.97  
Year to date precipitation 33.71 35.95  
Sea Level Pressure  
Sea Level Pressure 30.05 in    
Wind  
Wind Speed 6 mph (East)    
Max Wind Speed 14 mph    
Max Gust Speed 20 mph    
Visibility 6 miles    
Events Fog , Rain    
T = Trace of Precipitation, MM = Missing Value Source: NWS Daily Summary

Daily Weather History Graph

Daily Weather History Graph

Search for Another Location

Airport or City:

Trip Planner

Search our weather history database for the weather conditions in past years. The results will help you decide how hot, cold, wet, or windy it might be!

Date:

Astronomy

Sep. 28, 2012 Rise Set
Actual Time 6:55 AM EDT 6:47 PM EDT
Civil Twilight 6:28 AM EDT 7:15 PM EDT
Nautical Twilight 5:56 AM EDT 7:47 PM EDT
Astronomical Twilight 5:23 AM EDT 8:19 PM EDT
Moon 5:48 PM EDT 5:23 AM EDT
Length of Visible Light 12h 47m
Length of Day
11h 52m
Waxing Gibbous, 98% of the Moon is Illuminated
Sep 28
Waxing Gibbous
Sep 29
Full
Oct 8
Last Quarter
Oct 15
New
Oct 21
First Quarter

Hourly Weather History & Observations

Time (EDT) Temp. Dew Point Humidity Pressure Visibility Wind Dir Wind Speed Gust Speed Precip Events Conditions
12:33 AM 53.6 °F 50.0 °F 88% 30.16 in 10.0 mi East 9.2 mph - 0.01 in Rain Light Rain
12:53 AM 53.1 °F 50.0 °F 89% 30.15 in 10.0 mi East 6.9 mph - 0.04 in Rain Light Rain
1:53 AM 53.1 °F 51.1 °F 93% 30.14 in 10.0 mi East 8.1 mph - 0.02 in   Overcast
2:22 AM 53.6 °F 51.8 °F 94% 30.13 in 10.0 mi East 9.2 mph - 0.00 in Rain Light Rain
2:39 AM 51.8 °F 51.8 °F 100% 30.14 in 2.5 mi ESE 6.9 mph - 0.08 in Rain Heavy Rain
2:53 AM 52.0 °F 51.1 °F 97% 30.14 in 4.0 mi East 10.4 mph - 0.14 in Rain Rain
3:17 AM 51.8 °F 51.8 °F 100% 30.13 in 7.0 mi East 8.1 mph - 0.04 in Rain Light Rain
3:38 AM 51.8 °F 51.8 °F 100% 30.13 in 4.0 mi East 8.1 mph - 0.15 in Rain Heavy Rain
3:53 AM 52.0 °F 51.1 °F 97% 30.12 in 10.0 mi ESE 6.9 mph - 0.16 in Rain Light Rain
4:00 AM 51.8 °F 51.8 °F 100% 30.13 in 7.0 mi East 9.2 mph - 0.01 in Rain Rain
4:06 AM 51.8 °F 51.8 °F 100% 30.13 in 9.0 mi ESE 8.1 mph - 0.02 in Rain Light Rain
4:10 AM 51.8 °F 51.8 °F 100% 30.13 in 10.0 mi Variable 3.5 mph - 0.02 in Rain Light Rain
4:18 AM 51.8 °F 51.8 °F 100% 30.13 in 10.0 mi ESE 5.8 mph - 0.02 in   Overcast
4:29 AM 51.8 °F 51.8 °F 100% 30.12 in 10.0 mi East 6.9 mph - 0.02 in Rain Light Rain
4:41 AM 51.8 °F 51.8 °F 100% 30.12 in 10.0 mi East 6.9 mph - 0.02 in Rain Light Rain
4:53 AM 52.0 °F 51.1 °F 97% 30.11 in 10.0 mi East 8.1 mph - 0.03 in Rain Light Rain
5:13 AM 51.8 °F 51.8 °F 100% 30.10 in 2.0 mi ESE 6.9 mph - 0.00 in   Overcast
5:20 AM 51.8 °F 51.8 °F 100% 30.10 in 1.5 mi East 8.1 mph - 0.00 in   Overcast
5:53 AM 53.1 °F 52.0 °F 96% 30.09 in 0.8 mi ESE 4.6 mph - 0.00 in Rain Light Rain
6:26 AM 53.6 °F 53.6 °F 100% 30.09 in 0.2 mi East 6.9 mph - 0.00 in Fog Fog
6:53 AM 53.1 °F 53.1 °F 100% 30.09 in 0.2 mi East 5.8 mph - 0.00 in Fog Fog
7:53 AM 55.0 °F 54.0 °F 96% 30.08 in 0.2 mi ESE 8.1 mph - 0.01 in Fog , Rain Light Rain
8:53 AM 55.9 °F 55.0 °F 97% 30.07 in 0.2 mi ESE 4.6 mph - 0.02 in Fog , Rain Light Rain
9:53 AM 57.0 °F 57.0 °F 100% 30.07 in 0.2 mi SSE 3.5 mph - 0.01 in Fog , Rain Light Rain
10:53 AM 59.0 °F 57.9 °F 96% 30.06 in 0.2 mi SSE 3.5 mph - 0.02 in Fog Fog
11:16 AM 59.0 °F 57.2 °F 94% 30.06 in 0.8 mi SSE 4.6 mph - N/A   Mist
11:53 AM 60.1 °F 59.0 °F 96% 30.05 in 0.5 mi South 4.6 mph - N/A Fog Fog
12:14 PM 60.8 °F 60.8 °F 100% 30.04 in 0.2 mi South 4.6 mph - N/A Fog Fog
12:53 PM 61.0 °F 60.1 °F 97% 30.04 in 0.2 mi SSE 4.6 mph - N/A Fog Fog
1:53 PM 61.0 °F 60.1 °F 97% 30.02 in 0.8 mi WSW 8.1 mph - 0.03 in Rain Light Rain
1:56 PM 60.8 °F 59.0 °F 94% 30.02 in 2.5 mi WSW 5.8 mph - 0.00 in Rain Light Rain
2:01 PM 60.8 °F 60.8 °F 100% 30.02 in 4.0 mi West 4.6 mph - 0.01 in Rain Light Rain
2:31 PM 60.8 °F 60.8 °F 100% 30.02 in 8.0 mi West 12.7 mph 17.3 mph 0.01 in Rain Light Rain
2:41 PM 60.8 °F 57.2 °F 88% 30.02 in 8.0 mi West 11.5 mph - 0.01 in Rain Light Rain
2:50 PM 60.8 °F 59.0 °F 94% 30.02 in 10.0 mi West 9.2 mph - 0.01 in Rain Light Rain
3:02 PM 60.8 °F 59.0 °F 94% 30.02 in 10.0 mi WNW 9.2 mph - 0.00 in   Overcast
3:13 PM 62.6 °F 59.0 °F 88% 30.01 in 10.0 mi NW 5.8 mph - 0.00 in   Overcast
3:20 PM 62.6 °F 59.0 °F 88% 30.01 in 10.0 mi WNW 6.9 mph - 0.00 in   Overcast
3:53 PM 63.0 °F 57.9 °F 84% 30.00 in 10.0 mi WNW 8.1 mph - 0.00 in   Mostly Cloudy
4:02 PM 62.6 °F 57.2 °F 82% 30.00 in 10.0 mi NW 4.6 mph - N/A   Mostly Cloudy
4:53 PM 63.0 °F 57.9 °F 84% 29.99 in 10.0 mi WNW 4.6 mph - N/A   Scattered Clouds
5:53 PM 62.1 °F 57.9 °F 86% 29.99 in 10.0 mi WNW 3.5 mph - N/A   Scattered Clouds
6:53 PM 60.1 °F 57.0 °F 90% 29.99 in 10.0 mi Calm Calm - N/A   Partly Cloudy
6:58 PM 57.2 °F 57.2 °F 100% 29.99 in 0.5 mi SE 3.5 mph - N/A Fog Fog
7:08 PM 59.0 °F 57.2 °F 94% 29.99 in 0.2 mi Calm Calm - N/A Fog Fog
7:11 PM 59.0 °F 57.2 °F 94% 29.99 in 0.5 mi Calm Calm - N/A Fog Fog
7:34 PM 57.2 °F 57.2 °F 100% 29.99 in 1.2 mi Calm Calm - N/A   Overcast
7:43 PM 59.0 °F 57.2 °F 94% 29.99 in 0.8 mi ENE 4.6 mph - N/A   Overcast
7:53 PM 59.0 °F 57.9 °F 96% 29.99 in 0.5 mi Calm Calm - N/A Fog Fog
8:05 PM 57.2 °F 57.2 °F 100% 29.99 in 2.0 mi Calm Calm - N/A   Mostly Cloudy
8:07 PM 57.2 °F 57.2 °F 100% 29.99 in 4.0 mi Calm Calm - N/A   Mostly Cloudy
8:43 PM 57.2 °F 55.4 °F 94% 29.99 in 10.0 mi Calm Calm - N/A   Mostly Cloudy
8:53 PM 57.0 °F 55.9 °F 96% 29.99 in 10.0 mi Calm Calm - N/A   Mostly Cloudy
9:09 PM 57.2 °F 55.4 °F 94% 29.99 in 10.0 mi North 3.5 mph - N/A   Mostly Cloudy
9:25 PM 57.2 °F 55.4 °F 94% 29.99 in 10.0 mi NNW 4.6 mph - N/A   Overcast
9:40 PM 55.4 °F 53.6 °F 94% 29.99 in 10.0 mi NNW 6.9 mph - N/A   Overcast
9:53 PM 55.9 °F 54.0 °F 93% 29.99 in 10.0 mi NNW 5.8 mph - N/A   Overcast
10:27 PM 55.4 °F 53.6 °F 94% 29.99 in 10.0 mi NNW 5.8 mph - N/A   Overcast
10:53 PM 55.0 °F 53.1 °F 93% 29.99 in 10.0 mi NNW 9.2 mph - N/A   Overcast
11:27 PM 55.4 °F 53.6 °F 94% 29.98 in 10.0 mi NNW 6.9 mph - N/A   Overcast
11:53 PM 54.0 °F 53.1 °F 97% 29.97 in 10.0 mi NW 6.9 mph - N/A   Overcast